This is the latest recevied weather packets stored in our database for station/object SV4FHR-2. If no packets are shown the sender has not sent any weather packets the latest 10 day(s).
| Time | Temp. | Humidity | Pressure | Rain* | Wind** | Luminosity | Snow |
|---|---|---|---|---|---|---|---|
| 1777829665 | 11.67° C | 73% | 1016.1 hPa | 0 mm | - | - | - |
| 1777829365 | 11.67° C | 72% | 1016.1 hPa | 0 mm | - | - | - |
| 1777829064 | 11.67° C | 72% | 1015.9 hPa | 0 mm | - | - | - |
| 1777828764 | 12.22° C | 71% | 1015.8 hPa | 0 mm | - | - | - |
| 1777828464 | 12.78° C | 71% | 1015.8 hPa | 0 mm | - | - | - |
| 1777828163 | 12.78° C | 71% | 1015.8 hPa | 0 mm | - | - | - |
| 1777827863 | 12.78° C | 70% | 1016 hPa | 0 mm | - | - | - |
| 1777827563 | 12.78° C | 69% | 1015.7 hPa | 0 mm | - | - | - |
| 1777827263 | 13.33° C | 67% | 1015.4 hPa | 0 mm | - | - | - |
| 1777826963 | 13.33° C | 65% | 1015.6 hPa | 0 mm | - | - | - |
| 1777826663 | 13.33° C | 65% | 1015.7 hPa | 0 mm | - | - | - |
| 1777826365 | 13.89° C | 63% | 1015.5 hPa | 0 mm | - | - | - |
| 1777826065 | 13.89° C | 63% | 1015.3 hPa | 0 mm | - | - | - |
| 1777825765 | 13.89° C | 62% | 1015.3 hPa | 0 mm | - | - | - |
| 1777825464 | 14.44° C | 62% | 1015.6 hPa | 0 mm | - | - | - |
| 1777825165 | 14.44° C | 60% | 1015.4 hPa | 0 mm | - | - | - |
| 1777824864 | 14.44° C | 60% | 1015.4 hPa | 0 mm | - | - | - |
| 1777824564 | 14.44° C | 59% | 1015.2 hPa | 0 mm | - | - | - |
| 1777824264 | 15° C | 61% | 1015.4 hPa | 0 mm | - | - | - |
| 1777823964 | 15° C | 61% | 1015.4 hPa | 0 mm | - | - | - |
| 1777823664 | 14.44° C | 61% | 1015.3 hPa | 0 mm | - | - | - |
| 1777823365 | 15° C | 61% | 1015.4 hPa | 0 mm | - | - | - |
| 1777823065 | 15° C | 62% | 1015.3 hPa | 0 mm | - | - | - |
| 1777822764 | 15° C | 60% | 1015.4 hPa | 0 mm | - | - | - |
| 1777822464 | 15° C | 59% | 1015.5 hPa | 0 mm | - | - | - |
* Rain latest hour (hover to see other rain measurements)
** Current wind speed in m/s (hover to see current wind gust speed)